Temperature
10 10 10 10 10 10 10 10 11 11 11 11 11 11 11 11 11 11 12 11 11 11 11 11 11 11 11 11 11 11 11 11 11 11 11 11 11 11 11 11 11 11 11
9 9 9 9 10 10 10 10 10 10 10 10 11 11 11 11 11 11 11 11 11 11 11 11 11 11 11 11 11 11 11 11 11 11 11 11 11 11 10 11 11 11 10
9 9 9 9 9 9 9 9 9 9 10 10 10 10 10 10 10 11 11 11 11 11 11 10 10 11 11 10 10 10 11 10 10 10 10 10 10 10 10 10 10 10 10
8 8 8 8 8 8 8 8 9 9 9 9 9 9 10 10 10 10 10 10 10 10 10 10 10 10 10 10 10 10 10 10 10 10 10 10 10 10 10 10 10 9 9
7 7 7 7 7 8 8 8 8 8 8 8 9 9 9 9 9 9 9 10 10 10 10 10 10 10 10 10 10 10 9 10 10 9 9 9 9 9 9 9 9 9 9
6 7 7 7 7 7 7 7 7 7 7 8 8 8 8 9 9 9 9 9 9 9 9 9 9 9 9 9 9 9 9 9 9 9 9 9 9 9 9 9 9 9 9
6 6 6 6 6 6 7 7 7 7 7 7 7 7 8 8 8 8 8 8 9 9 9 9 9 9 9 9 9 9 9 9 9 8 8 8 8 8 8 8 8 8 8
5 5 5 6 6 6 6 6 6 6 6 6 6 6 6 7 7 7 8 8 8 8 8 8 8 8 8 8 8 8 8 8 8 8 8 8 8 8 8 8 8 8 8
5 4 5 5 5 5 5 5 5 6 6 6 6 6 6 6 6 6 7 7 7 7 7 8 8 8 8 8 8 8 8 8 8 8 8 7 7 7 7 7 7 7 7
4 4 4 4 4 5 5 5 5 5 5 5 5 5 6 6 5 5 5 6 6 6 6 7 7 7 7 7 7 7 7 7 7 7 7 7 7 7 7 7 7 7 7
3 3 3 3 4 4 4 4 4 4 4 5 5 5 5 5 5 5 5 5 5 6 6 6 6 6 6 6 6 6 7 7 7 7 7 7 7 6 6 6 6 6 6
3 3 3 3 3 3 3 3 3 3 4 4 4 4 4 4 4 5 4 4 5 5 5 5 5 5 5 6 6 6 6 6 6 6 6 6 6 6 6 6 6 6 6
2 2 2 2 2 3 3 3 3 3 3 3 3 3 3 4 4 4 4 4 4 4 4 4 5 5 5 5 5 5 5 5 6 6 6 6 6 6 5 5 5 5 5
2 2 2 2 2 2 2 2 2 2 2 2 3 3 3 3 3 3 3 3 3 3 3 4 4 4 4 4 4 4 5 5 5 5 5 5 5 5 5 5 5 5 5
1 1 1 1 2 2 2 2 2 2 2 2 2 2 2 2 2 3 3 3 3 2 2 3 3 3 3 3 4 4 4 4 4 4 4 5 5 4 4 4 4 4 4
1 1 1 1 1 1 1 1 1 1 1 1 1 1 2 2 2 2 2 2 2 2 2 2 2 2 2 3 3 3 3 3 3 4 4 3 3 4 4 4 3 4 4
0 0 0 0 1 1 1 1 1 1 1 1 1 1 1 1 1 1 1 2 2 1 1 2 2 2 2 2 2 2 2 2 3 3 3 3 3 3 3 3 3 3 3
-0 -0 -0 0 0 0 0 0 0 0 0 1 1 1 1 1 1 1 1 1 1 1 1 1 1 1 1 1 1 2 2 2 2 2 2 2 2 2 2 2 2 2 2
-1 -1 -0 -0 -0 -0 -0 -0 -0 -0 -0 0 0 0 0 0 0 0 0 0 1 1 1 1 1 0 1 1 1 1 1 1 1 1 1 1 1 1 1 1 1 2 2
-1 -1 -1 -1 -1 -1 -1 -1 -0 -0 -0 -0 -0 -0 -0 -0 -0 -0 -0 -0 -0 0 0 -0 -0 -0 -0 0 0 0 1 1 1 1 0 0 0 0 1 1 1 1 1
-1 -1 -1 -1 -1 -1 -1 -1 -1 -1 -1 -1 -1 -1 -1 -1 -1 -1 -1 -1 -1 -1 -1 -1 -1 -1 -1 -1 -1 -0 -0 -0 0 -0 -0 -0 -0 -0 0 0 0 0 0
-2 -2 -2 -2 -1 -2 -2 -1 -1 -1 -1 -1 -1 -1 -1 -1 -1 -1 -1 -1 -1 -1 -1 -1 -1 -1 -1 -1 -1 -1 -1 -1 -1 -1 -1 -1 -1 -1 -1 -1 -1 -1 -1
-2 -2 -2 -2 -2 -2 -2 -2 -2 -2 -2 -2 -2 -2 -2 -2 -2 -2 -1 -2 -2 -2 -1 -1 -1 -2 -2 -2 -2 -2 -2 -2 -2 -2 -2 -1 -1 -1 -1 -1 -1 -1 -1
-3 -3 -3 -3 -3 -2 -2 -2 -2 -2 -2 -2 -2 -2 -2 -2 -2 -2 -2 -2 -2 -2 -2 -2 -2 -2 -2 -2 -2 -2 -2 -2 -2 -2 -2 -2 -2 -2 -2 -2 -2 -2 -2
-3 -3 -3 -3 -3 -3 -3 -3 -3 -2 -2 -2 -2 -3 -3 -2 -2 -2 -2 -3 -3 -3 -3 -3 -3 -3 -3 -3 -3 -3 -3 -3 -3 -3 -3 -3 -3 -3 -2 -2 -2 -2 -3
-4 -4 -4 -4 -4 -3 -3 -3 -3 -3 -3 -3 -3 -3 -3 -3 -3 -3 -3 -3 -3 -3 -3 -3 -3 -3 -3 -3 -3 -3 -3 -3 -3 -4 -4 -4 -4 -4 -4 -3 -3 -3 -3
Wind_Speed
4 4 4 4 5 4 3 3 3 3 3 3 3 2 2 1 1 1 1 1 2 4 5 5 5 5 5 5 5 4 4 4 3 3 3 4 4 3 3 3 2 2 2
3 3 3 3 4 4 3 2 2 2 2 2 2 2 2 1 1 1 1 1 1 2 3 4 4 4 4 4 5 4 4 4 3 3 3 3 3 3 3 3 3 3 3
3 3 2 3 3 4 3 3 3 2 2 2 2 2 2 2 1 1 1 1 1 1 2 2 3 3 4 4 4 5 4 4 3 3 3 3 4 4 3 3 3 4 4
4 3 3 3 4 3 3 2 1 2 2 2 2 2 2 2 1 1 1 1 2 1 1 1 2 2 3 4 4 5 4 4 3 4 4 4 5 5 5 4 4 4 5
5 4 3 3 4 3 2 2 2 1 1 2 2 2 2 2 1 1 2 2 2 2 2 1 0 1 2 3 3 4 4 4 4 4 4 4 5 5 5 5 5 5 6
6 5 3 4 4 2 2 1 1 2 1 1 2 3 3 2 2 1 1 2 2 2 3 3 2 1 2 3 4 3 4 4 5 5 4 4 5 5 5 5 5 6 6
6 5 4 3 3 2 1 1 0 1 1 1 1 2 3 2 1 1 2 2 2 2 3 2 2 2 2 2 4 4 3 3 3 3 4 4 4 5 5 4 4 4 5
6 5 4 2 2 2 2 1 1 0 1 1 1 0 1 3 2 2 1 1 2 2 2 1 2 1 2 2 3 3 3 3 3 3 3 4 4 4 5 4 4 4 5
6 5 4 3 2 1 0 0 0 0 0 1 1 1 1 2 1 2 2 2 2 2 2 2 2 1 1 1 2 3 3 3 3 3 4 4 4 5 5 5 5 5 5
4 4 4 3 3 2 1 1 0 0 1 1 1 1 1 1 1 1 2 2 2 2 2 2 2 3 3 2 2 3 3 3 4 4 4 5 5 5 5 5 5 5 6
4 4 3 3 3 2 1 1 1 0 0 1 1 1 1 1 0 1 2 2 2 2 2 1 2 3 3 3 3 4 4 4 4 4 5 5 5 5 5 5 5 5 6
3 4 3 3 3 2 1 1 1 1 1 1 1 0 0 1 1 1 1 2 2 2 2 1 2 2 3 3 3 4 4 5 5 5 6 6 6 5 4 5 6 6 7
2 3 3 2 2 1 1 1 1 1 1 1 1 1 1 1 1 1 1 1 2 2 1 1 1 2 2 3 3 4 4 5 5 6 6 6 6 5 5 5 6 7 7
3 3 3 2 2 1 1 1 1 1 1 1 1 1 1 1 1 1 2 1 1 2 1 2 1 2 2 3 3 4 4 5 6 6 7 7 6 5 5 5 6 6 6
3 3 3 2 2 1 0 0 1 1 1 1 1 1 1 1 1 1 1 2 2 2 2 2 1 1 3 3 3 4 4 5 6 6 6 6 6 6 5 5 5 5 5
4 4 3 2 1 1 1 1 1 1 1 1 1 1 1 1 1 0 1 0 1 2 2 2 2 1 2 3 4 4 3 4 5 6 6 6 6 6 5 5 6 6 6
4 3 2 2 2 1 1 1 2 1 1 1 1 1 1 1 1 1 1 0 1 1 2 2 2 1 1 1 3 4 3 3 4 5 5 5 6 6 6 6 6 6 6
4 3 2 2 2 2 2 2 2 2 2 2 2 2 2 1 1 1 1 1 1 2 2 2 2 1 1 1 2 2 3 4 4 4 5 5 6 6 7 6 6 7 7
3 3 2 2 3 2 2 2 2 2 3 3 3 3 2 2 2 2 2 2 2 2 2 3 2 1 1 1 1 2 3 3 4 5 5 6 6 7 7 7 6 6 6
3 2 2 2 2 2 2 2 2 2 2 2 2 3 3 3 3 3 3 3 2 2 2 3 3 1 1 1 0 1 2 2 3 4 5 6 7 7 7 7 6 6 6
2 2 2 2 2 2 2 2 2 2 2 2 2 2 3 3 3 3 2 2 2 2 2 2 3 2 1 0 1 1 2 3 3 2 3 4 5 5 7 7 7 7 6
2 1 1 2 2 3 4 4 2 2 2 2 2 2 3 3 3 4 4 3 2 3 3 3 2 2 2 2 1 1 1 2 2 2 2 4 3 3 5 6 7 7 7
2 2 2 2 2 4 5 4 2 2 2 2 3 2 2 2 2 1 2 2 2 2 3 3 3 3 3 3 2 2 2 2 3 2 2 3 2 3 4 6 7 7 7
2 2 3 3 3 4 5 4 3 1 2 2 3 3 3 2 2 1 1 1 1 1 2 1 3 3 3 3 3 3 2 2 2 2 2 2 2 3 5 6 7 6 7
3 2 2 3 3 4 5 4 3 1 2 2 2 2 2 2 2 1 1 1 0 1 2 1 2 3 3 3 1 1 0 1 2 2 1 1 2 3 3 3 4 6 8
2 2 2 2 2 3 5 4 3 1 1 2 1 2 2 2 3 2 2 2 1 1 1 1 1 1 1 0 1 2 2 2 2 2 1 0 1 2 3 2 3 5 6
Wind_Direction
12 9 9 13 11 13 16 20 34 40 36 32 34 32 40 73 76 87 58 124 188 203 202 196 191 187 187 185 181 182 183 181 182 183 189 189 184 181 181 191 201 201 201
19 6 5 5 1 4 9 19 28 40 40 47 30 19 9 34 88 90 83 92 183 202 206 200 197 196 198 201 196 193 194 199 205 201 202 201 203 207 201 202 225 233 238
24 16 4 358 349 357 13 34 40 50 39 37 8 10 14 13 83 105 104 91 90 199 213 205 212 220 216 220 210 201 196 199 209 216 221 222 221 224 225 223 235 240 244
25 27 14 355 350 8 26 30 36 28 8 2 348 340 1 20 28 90 99 98 94 94 161 206 222 244 239 239 223 212 204 202 214 228 233 235 234 232 235 235 246 252 253
26 26 21 2 360 14 26 29 25 31 14 359 351 340 342 352 354 51 77 86 96 104 110 110 61 298 270 267 251 235 227 223 227 236 240 242 241 242 242 237 245 255 258
26 25 20 14 16 17 18 29 36 28 12 358 7 355 339 337 10 22 41 67 79 101 105 99 73 1 305 294 281 269 254 243 238 241 247 254 253 255 252 247 252 257 257
18 25 18 17 14 13 360 12 50 50 13 15 26 358 344 346 7 11 49 57 53 71 88 99 91 59 9 319 307 288 280 264 253 251 256 261 259 259 257 255 256 254 259
14 15 15 7 4 9 18 21 33 45 347 13 50 354 337 345 360 358 19 52 35 50 62 86 101 93 44 24 328 303 305 288 269 271 278 276 269 266 262 261 253 257 268
13 7 359 1 360 6 304 321 26 103 260 332 18 161 185 232 308 339 3 21 22 27 21 57 79 85 80 42 0 327 309 306 295 284 286 291 283 273 265 264 265 269 276
2 3 359 356 353 353 326 284 1 275 173 280 323 347 255 199 212 321 333 356 10 10 356 31 64 52 50 45 18 345 332 315 307 309 300 294 291 283 274 272 273 277 279
349 351 355 347 339 335 305 326 344 337 203 232 264 308 340 338 329 196 279 322 348 348 350 355 74 67 50 37 22 4 359 353 341 327 315 300 301 293 285 282 285 289 288
331 342 350 349 339 330 298 267 252 245 261 280 272 271 195 197 241 205 238 283 301 317 334 358 57 74 52 37 21 14 3 1 355 345 333 316 311 302 301 295 289 286 289
311 309 326 330 323 319 324 343 329 280 266 245 246 263 249 241 243 214 193 247 287 298 321 342 23 57 45 31 13 8 358 352 352 345 337 327 313 305 297 293 291 287 288
292 297 305 310 311 334 346 356 298 277 280 267 286 278 279 289 265 204 194 182 277 294 300 288 329 41 31 17 8 7 359 352 348 343 337 333 332 320 310 298 297 297 297
307 309 298 284 291 311 340 317 291 292 282 278 279 273 275 276 266 260 200 184 185 226 256 274 298 347 2 1 0 6 358 350 347 344 338 336 337 332 328 317 310 308 308
305 302 294 274 276 292 295 243 263 289 307 296 289 288 287 271 291 289 223 260 214 205 234 257 270 287 349 350 349 357 349 352 348 343 340 339 339 334 325 329 326 315 304
299 293 286 269 256 259 260 249 258 261 265 282 284 270 271 279 279 277 303 259 227 226 237 269 270 278 326 342 343 346 344 350 341 336 335 337 340 337 328 322 320 318 312
299 291 289 275 260 251 246 240 253 260 250 256 261 259 264 268 259 258 250 241 236 238 214 238 252 270 272 314 341 339 342 348 338 330 332 340 344 340 330 322 320 317 312
300 300 285 270 261 255 244 247 240 250 250 250 246 239 245 245 260 253 248 242 244 249 211 199 231 244 277 324 358 346 349 346 342 336 346 353 350 342 334 329 323 322 319
290 294 291 283 271 266 253 252 242 250 251 255 250 242 241 235 241 236 241 238 233 236 208 192 213 230 262 293 13 346 343 349 341 342 352 351 348 346 342 340 332 323 319
300 300 303 308 304 281 258 252 249 234 238 257 262 256 251 253 256 252 243 223 208 215 214 204 218 217 218 267 298 312 324 329 329 345 348 338 337 337 336 338 337 331 321
323 324 310 296 301 294 285 278 268 232 237 242 260 265 261 254 270 268 258 240 221 215 218 215 222 219 234 240 250 270 292 318 312 338 344 322 328 329 329 329 332 333 334
316 312 307 304 293 291 295 290 286 243 235 241 247 256 275 282 294 270 266 273 274 269 251 228 215 231 236 230 234 260 269 278 272 282 317 305 325 320 325 326 329 332 333
304 298 296 291 290 295 306 303 305 285 246 246 239 233 236 258 259 244 214 240 287 307 293 249 221 232 231 231 222 234 252 287 287 298 300 290 316 313 320 320 326 342 351
303 296 292 292 289 295 304 308 318 273 247 258 256 243 237 237 247 238 171 176 250 306 328 305 257 246 246 250 233 137 221 303 302 304 328 275 300 315 314 310 329 350 351
294 301 303 298 287 287 303 312 318 243 237 244 250 251 254 251 253 231 175 174 218 247 264 351 359 345 339 273 247 196 195 218 274 286 284 288 286 328 325 309 319 328 332
Height
1514 1513 1513 1513 1512 1512 1512 1512 1512 1513 1513 1514 1514 1514 1514 1515 1515 1516 1516 1517 1518 1519 1520 1520 1521 1522 1522 1523 1523 1524 1524 1525 1525 1525 1526 1526 1526 1526 1527 1527 1527 1527 1527
1511 1511 1511 1510 1510 1510 1510 1510 1510 1510 1511 1511 1511 1511 1511 1512 1512 1513 1514 1515 1515 1516 1517 1518 1519 1519 1520 1520 1521 1521 1522 1522 1523 1523 1523 1524 1524 1524 1524 1524 1524 1524 1524
1509 1509 1508 1508 1508 1507 1507 1507 1508 1508 1508 1508 1508 1508 1509 1509 1510 1510 1511 1511 1512 1513 1514 1515 1516 1517 1517 1518 1518 1519 1519 1520 1520 1520 1521 1521 1521 1522 1521 1521 1522 1522 1522
1506 1506 1506 1505 1505 1505 1505 1505 1505 1505 1505 1505 1505 1506 1506 1506 1507 1507 1508 1508 1509 1510 1512 1512 1513 1514 1514 1515 1515 1516 1516 1517 1517 1518 1518 1518 1519 1519 1519 1519 1519 1519 1519
1504 1503 1503 1503 1503 1502 1502 1502 1502 1502 1502 1502 1502 1503 1503 1504 1504 1505 1505 1506 1506 1507 1508 1509 1510 1511 1511 1512 1512 1512 1513 1514 1514 1515 1515 1515 1516 1516 1516 1516 1516 1516 1516
1501 1501 1500 1500 1500 1499 1499 1500 1500 1500 1500 1500 1500 1500 1500 1501 1501 1502 1502 1503 1503 1504 1505 1506 1507 1508 1508 1509 1509 1509 1510 1510 1511 1511 1512 1512 1512 1512 1513 1513 1513 1513 1513
1499 1498 1498 1497 1497 1497 1497 1497 1497 1497 1497 1497 1497 1497 1497 1498 1498 1499 1499 1500 1500 1501 1502 1502 1503 1504 1505 1505 1506 1506 1506 1507 1508 1508 1508 1509 1509 1509 1509 1509 1509 1509 1509
1497 1496 1495 1495 1494 1494 1494 1494 1494 1494 1494 1495 1495 1495 1495 1496 1495 1496 1496 1497 1497 1498 1498 1499 1499 1500 1501 1502 1502 1502 1502 1503 1504 1505 1505 1506 1506 1506 1506 1506 1506 1506 1506
1495 1494 1493 1492 1492 1491 1491 1491 1492 1492 1492 1492 1493 1494 1493 1492 1493 1493 1493 1494 1494 1495 1495 1495 1496 1497 1498 1498 1499 1499 1499 1500 1500 1501 1501 1502 1502 1502 1503 1503 1503 1503 1502
1493 1492 1491 1490 1489 1489 1489 1489 1489 1489 1490 1489 1490 1490 1491 1491 1491 1490 1491 1491 1492 1492 1493 1493 1493 1494 1494 1495 1496 1496 1496 1496 1497 1497 1498 1498 1499 1499 1499 1499 1499 1499 1499
1490 1489 1488 1487 1487 1486 1486 1486 1486 1487 1487 1487 1487 1487 1487 1488 1488 1489 1488 1489 1489 1490 1490 1490 1490 1491 1491 1492 1492 1493 1492 1493 1493 1494 1494 1494 1495 1495 1495 1495 1495 1495 1495
1488 1487 1486 1485 1484 1484 1483 1483 1483 1484 1484 1485 1485 1485 1485 1485 1486 1486 1486 1486 1486 1487 1487 1488 1488 1488 1488 1489 1489 1489 1490 1490 1490 1490 1490 1491 1491 1491 1491 1490 1490 1491 1490
1485 1484 1484 1483 1482 1481 1481 1481 1481 1482 1482 1482 1482 1482 1482 1483 1484 1484 1484 1484 1484 1484 1484 1485 1485 1485 1485 1486 1486 1486 1486 1486 1486 1487 1487 1487 1487 1487 1486 1486 1486 1486 1486
1482 1482 1481 1480 1480 1480 1479 1479 1479 1479 1479 1479 1479 1479 1480 1480 1481 1481 1481 1482 1481 1482 1481 1482 1482 1482 1483 1483 1483 1483 1483 1483 1483 1483 1483 1483 1482 1482 1482 1482 1482 1482 1481
1480 1479 1478 1478 1477 1477 1477 1477 1477 1477 1477 1477 1477 1477 1477 1477 1478 1478 1478 1479 1480 1479 1479 1479 1479 1480 1480 1480 1480 1480 1480 1480 1479 1479 1479 1478 1478 1478 1478 1477 1477 1477 1477
1476 1476 1475 1475 1475 1475 1474 1474 1474 1474 1474 1474 1474 1474 1474 1474 1474 1474 1475 1475 1476 1476 1475 1475 1476 1477 1477 1477 1477 1477 1476 1476 1476 1475 1475 1475 1474 1474 1473 1473 1473 1473 1472
1473 1472 1472 1472 1472 1472 1472 1471 1471 1471 1471 1471 1471 1471 1471 1471 1471 1471 1472 1472 1473 1473 1472 1472 1474 1474 1474 1474 1474 1474 1473 1473 1473 1472 1472 1471 1470 1469 1469 1469 1468 1468 1468
1470 1469 1469 1469 1469 1469 1469 1469 1468 1468 1468 1468 1468 1468 1468 1468 1468 1468 1468 1469 1469 1470 1470 1469 1470 1471 1471 1471 1471 1471 1470 1470 1470 1469 1468 1467 1466 1466 1465 1465 1464 1464 1463
1467 1466 1466 1466 1466 1466 1466 1466 1466 1466 1466 1465 1465 1465 1465 1465 1465 1465 1466 1466 1466 1466 1466 1466 1466 1467 1468 1468 1468 1468 1467 1467 1466 1466 1465 1464 1463 1462 1461 1461 1460 1459 1458
1464 1463 1463 1463 1463 1463 1463 1463 1463 1463 1463 1463 1463 1463 1462 1462 1462 1462 1462 1463 1463 1463 1463 1463 1464 1464 1465 1465 1465 1465 1464 1463 1463 1462 1461 1460 1460 1459 1458 1457 1456 1455 1454
1461 1461 1460 1460 1460 1460 1460 1461 1461 1460 1460 1460 1460 1460 1460 1459 1459 1459 1460 1460 1460 1459 1460 1460 1460 1461 1461 1462 1462 1461 1461 1460 1460 1459 1458 1458 1457 1455 1455 1453 1452 1451 1450
1458 1458 1457 1457 1457 1457 1458 1458 1458 1458 1457 1457 1457 1457 1457 1457 1456 1456 1457 1457 1457 1457 1457 1457 1457 1457 1458 1459 1459 1459 1459 1457 1456 1457 1456 1455 1454 1453 1451 1450 1449 1448 1447
1456 1455 1455 1454 1454 1455 1455 1455 1455 1455 1455 1454 1454 1454 1454 1454 1453 1453 1453 1453 1454 1454 1454 1455 1454 1455 1455 1456 1456 1456 1456 1455 1454 1454 1453 1451 1451 1450 1449 1447 1446 1445 1443
1453 1453 1452 1452 1452 1452 1452 1452 1452 1452 1452 1451 1451 1451 1451 1451 1450 1450 1450 1450 1450 1451 1451 1452 1452 1453 1453 1453 1454 1454 1453 1452 1452 1451 1451 1448 1447 1446 1445 1444 1443 1442 1441
1451 1451 1450 1450 1449 1449 1449 1449 1449 1449 1449 1449 1449 1449 1448 1448 1448 1448 1448 1448 1448 1448 1449 1449 1450 1450 1450 1451 1451 1451 1450 1450 1448 1448 1447 1446 1444 1443 1442 1441 1440 1439 1438
1449 1449 1448 1448 1447 1447 1447 1447 1447 1446 1446 1446 1446 1446 1446 1446 1446 1446 1446 1446 1445 1445 1446 1446 1447 1447 1447 1448 1448 1448 1447 1447 1446 1445 1444 1444 1442 1441 1439 1438 1437 1437 1435